Weather History for Bishop, CA

Change the Weather History Date:

Thursday, October 10, 2013

  Actual Average Record
Temperature  
Mean Temperature 53 °F 59 °F  
Max Temperature 68 °F 79 °F 92 °F (1971)
Min Temperature 38 °F 39 °F 25 °F (1985)
Degree Days  
Heating Degree Days 12 6  
Month to date heating degree days 94 50  
Since 1 July heating degree days 150 93  
Cooling Degree Days 0 0  
Month to date cooling degree days 0 7  
Year to date cooling degree days 1337 1103  
Growing Degree Days 4 (Base 50)    
Moisture  
Dew Point 36 °F    
Average Humidity 59    
Maximum Humidity 92    
Minimum Humidity 26    
Precipitation  
Precipitation 0.00 in 0.01 in 0.15 in (2006)
Month to date precipitation 0.13 0.09  
Year to date precipitation 1.24 3.65  
Snow  
Snow 0.00 in 0.00 in - ()
Month to date snowfall 0.0 0.0  
Since 1 July snowfall 0.0 0.0  
Since 1 September snowfall 0.0 0.0  
Snow Depth 0.00 in    
Sea Level Pressure  
Sea Level Pressure 29.83 in    
Wind  
Wind Speed 7 mph (NW)    
Max Wind Speed 17 mph    
Max Gust Speed 23 mph    
Visibility 10 miles    
Events      
T = Trace of Precipitation, MM = Missing Value Source: NWS Daily Summary

Daily Weather History Graph

Daily Weather History Graph

Search for Another Location

Airport:

Trip Planner

Search our weather history database for the weather conditions in past years. The results will help you decide how hot, cold, wet, or windy it might be!

Date:

Astronomy

Oct. 10, 2013 Rise Set
Actual Time 6:57 AM PDT 6:22 PM PDT
Civil Twilight 6:30 AM PDT 6:49 PM PDT
Nautical Twilight 6:00 AM PDT 7:19 PM PDT
Astronomical Twilight 5:30 AM PDT 7:49 PM PDT
Moon 12:48 PM PDT (10/10) 11:10 PM PDT (10/10)
Length of Visible Light 12h 18m
Length of Day
11h 25m
Waxing Crescent, 37% of the Moon is Illuminated
Oct 10
Waxing Crescent
Oct 11
First Quarter
Oct 18
Full
Oct 26
Last Quarter
Nov 3
New

Hourly Weather History & Observations

Time (PDT) Temp. Windchill Dew Point Humidity Pressure Visibility Wind Dir Wind Speed Gust Speed Precip Events Conditions
12:56 AM 37.9 °F 32.1 °F 36.0 °F 93% 29.75 in 10.0 mi NNW 8.1 mph - N/A   Clear
1:56 AM 39.0 °F 35.7 °F 37.0 °F 93% 29.77 in 10.0 mi NNW 4.6 mph - N/A   Mostly Cloudy
2:56 AM 39.0 °F 34.8 °F 37.0 °F 93% 29.77 in 10.0 mi NNE 5.8 mph - N/A   Overcast
3:56 AM 39.0 °F 34.0 °F 36.0 °F 89% 29.77 in 10.0 mi WNW 6.9 mph - N/A   Overcast
4:56 AM 39.9 °F 35.1 °F 37.0 °F 89% 29.78 in 10.0 mi NW 6.9 mph - N/A   Overcast
5:56 AM 41.0 °F - 37.0 °F 86% 29.80 in 10.0 mi Calm Calm - N/A   Overcast
6:56 AM 39.9 °F 37.8 °F 37.0 °F 89% 29.81 in 10.0 mi NNW 3.5 mph - N/A   Mostly Cloudy
7:56 AM 43.0 °F 38.8 °F 37.9 °F 82% 29.82 in 10.0 mi WNW 6.9 mph - N/A   Mostly Cloudy
8:56 AM 50.0 °F - 39.0 °F 66% 29.83 in 10.0 mi WNW 3.5 mph - N/A   Clear
9:56 AM 54.0 °F - 37.0 °F 53% 29.85 in 10.0 mi NNW 11.5 mph - N/A   Clear
10:56 AM 57.0 °F - 36.0 °F 45% 29.83 in 10.0 mi Variable 5.8 mph - N/A   Clear
11:56 AM 61.0 °F - 35.1 °F 38% 29.83 in 10.0 mi NNW 5.8 mph - N/A   Clear
12:56 PM 63.0 °F - 33.1 °F 33% 29.82 in 10.0 mi Calm Calm - N/A   Clear
1:56 PM 64.9 °F - 35.1 °F 33% 29.80 in 10.0 mi Variable 5.8 mph - N/A   Clear
2:56 PM 66.9 °F - 34.0 °F 30% 29.79 in 10.0 mi Variable 3.5 mph - N/A   Clear
3:56 PM 66.9 °F - 30.9 °F 26% 29.80 in 10.0 mi South 9.2 mph - N/A   Clear
4:56 PM 64.9 °F - 35.1 °F 33% 29.81 in 10.0 mi SSE 18.4 mph - N/A   Partly Cloudy
5:56 PM 62.1 °F - 35.1 °F 37% 29.82 in 10.0 mi SSE 13.8 mph - N/A   Partly Cloudy
6:56 PM 57.9 °F - 37.0 °F 46% 29.86 in 10.0 mi SSE 15.0 mph 21.9 mph N/A   Clear
7:56 PM 57.0 °F - 36.0 °F 45% 29.87 in 10.0 mi South 12.7 mph - N/A   Clear
8:56 PM 54.0 °F - 36.0 °F 51% 29.89 in 10.0 mi South 5.8 mph - N/A   Clear
9:56 PM 51.1 °F - 36.0 °F 56% 29.92 in 10.0 mi Calm Calm - N/A   Clear
10:56 PM 43.0 °F 38.8 °F 34.0 °F 71% 29.94 in 10.0 mi North 6.9 mph - N/A   Clear
11:56 PM 43.0 °F 41.3 °F 34.0 °F 71% 29.95 in 10.0 mi North 3.5 mph - N/A   Clear